STARLINK-36979

Last updated on Mon Mar 30 2026 00:02:05 GMT+0000 (Coordinated Universal Time)

1 67996U 26039L 26088.16668981 -.02359367 00000+0 -90793-1 0 9991 2 67996 42.9995 298.8763 0001445 256.8037 72.6896 15.29609985 6003
UTC large
Height (km)
Speed (km/s)
/
Latitude / Longitude
Inclination (degrees)
Orbital Period (minutes)
Azimuth
Elevation
Range (km)
Doppler Factor

Next 0 passes for location: London (51.5072 / 0.1276)

Sorry there are no passes over London.